TimeCDT,TemperatureF,Dew PointF,Humidity,Sea Level PressureIn,VisibilityMPH,Wind Direction,Wind SpeedMPH,Gust SpeedMPH,PrecipitationIn,Events,Conditions,WindDirDegrees,DateUTC
12:15 AM,55.4,55.4,100,29.85,1.0,Calm,Calm,-,N/A,,Overcast,0,2012-10-24 05:15:00
12:35 AM,55.4,55.4,100,29.85,1.0,Calm,Calm,-,N/A,,Overcast,0,2012-10-24 05:35:00
1:15 AM,57.2,55.4,94,29.85,0.8,Calm,Calm,-,N/A,,Overcast,0,2012-10-24 06:15:00
1:35 AM,57.2,55.4,94,29.84,0.8,Calm,Calm,-,N/A,,Overcast,0,2012-10-24 06:35:00
1:55 AM,57.2,55.4,94,29.85,0.8,SSE,3.5,-,N/A,,Overcast,150,2012-10-24 06:55:00
2:15 AM,57.2,55.4,94,29.85,0.8,SE,3.5,-,N/A,,Overcast,140,2012-10-24 07:15:00
2:35 AM,57.2,55.4,94,29.85,0.5,Calm,Calm,-,N/A,Fog,Fog,0,2012-10-24 07:35:00
2:55 AM,57.2,55.4,94,29.85,0.5,Calm,Calm,-,N/A,Fog,Fog,0,2012-10-24 07:55:00
3:15 AM,57.2,55.4,94,29.85,0.5,Calm,Calm,-,N/A,Fog,Fog,0,2012-10-24 08:15:00
3:35 AM,57.2,55.4,94,29.84,0.5,Calm,Calm,-,N/A,Fog,Fog,0,2012-10-24 08:35:00
3:55 AM,57.2,55.4,94,29.85,0.5,SSE,3.5,-,N/A,Fog,Fog,160,2012-10-24 08:55:00
4:15 AM,57.2,55.4,94,29.85,0.5,Calm,Calm,-,N/A,Fog,Fog,0,2012-10-24 09:15:00
4:35 AM,57.2,55.4,94,29.84,0.5,SE,3.5,-,N/A,Fog,Fog,140,2012-10-24 09:35:00
4:55 AM,57.2,57.2,100,29.84,0.5,SE,3.5,-,N/A,Fog,Fog,140,2012-10-24 09:55:00
5:15 AM,59.0,57.2,94,29.84,0.5,Calm,Calm,-,N/A,Fog,Fog,0,2012-10-24 10:15:00
5:35 AM,59.0,57.2,94,29.85,0.5,Calm,Calm,-,N/A,Fog,Fog,0,2012-10-24 10:35:00
5:55 AM,59.0,57.2,94,29.84,0.5,SE,3.5,-,N/A,Fog,Fog,140,2012-10-24 10:55:00
6:15 AM,59.0,57.2,94,29.85,0.5,Calm,Calm,-,N/A,Fog,Fog,0,2012-10-24 11:15:00
6:35 AM,59.0,57.2,94,29.85,0.8,Calm,Calm,-,N/A,,Overcast,0,2012-10-24 11:35:00
7:15 AM,59.0,57.2,94,29.86,0.5,Calm,Calm,-,N/A,Fog,Fog,0,2012-10-24 12:15:00
7:35 AM,59.0,57.2,94,29.86,0.5,Calm,Calm,-,N/A,Fog,Fog,0,2012-10-24 12:35:00
7:55 AM,59.0,57.2,94,29.87,0.5,Calm,Calm,-,N/A,Fog,Fog,0,2012-10-24 12:55:00
8:15 AM,59.0,59.0,100,29.87,0.2,Calm,Calm,-,N/A,Fog,Fog,0,2012-10-24 13:15:00
8:35 AM,59.0,59.0,100,29.88,0.5,Calm,Calm,-,N/A,Fog,Fog,0,2012-10-24 13:35:00
8:55 AM,59.0,59.0,100,29.87,0.2,Calm,Calm,-,N/A,Fog,Fog,0,2012-10-24 13:55:00
9:15 AM,59.0,59.0,100,29.88,0.2,Calm,Calm,-,N/A,Fog,Fog,0,2012-10-24 14:15:00
9:35 AM,59.0,59.0,100,29.87,0.2,Calm,Calm,-,N/A,Fog,Fog,0,2012-10-24 14:35:00
9:55 AM,59.0,59.0,100,29.87,0.2,SE,3.5,-,N/A,Fog,Fog,140,2012-10-24 14:55:00
10:15 AM,59.0,59.0,100,29.87,0.5,Calm,Calm,-,N/A,Fog,Fog,0,2012-10-24 15:15:00
10:35 AM,60.8,59.0,94,29.87,0.5,Calm,Calm,-,N/A,Fog,Fog,0,2012-10-24 15:35:00
10:55 AM,60.8,59.0,94,29.86,0.8,SE,3.5,-,N/A,,Overcast,130,2012-10-24 15:55:00
11:15 AM,60.8,59.0,94,29.86,1.0,SE,3.5,-,N/A,,Overcast,140,2012-10-24 16:15:00
11:35 AM,60.8,59.0,94,29.86,1.0,Calm,Calm,-,N/A,,Overcast,0,2012-10-24 16:35:00
11:55 AM,60.8,59.0,94,29.85,0.8,Calm,Calm,-,N/A,,Overcast,0,2012-10-24 16:55:00
12:15 PM,60.8,59.0,94,29.84,1.0,SE,3.5,-,N/A,,Overcast,130,2012-10-24 17:15:00
12:35 PM,60.8,59.0,94,29.84,1.0,Calm,Calm,-,N/A,,Overcast,0,2012-10-24 17:35:00
12:55 PM,60.8,59.0,94,29.84,1.2,SE,4.6,-,N/A,,Overcast,140,2012-10-24 17:55:00
1:15 PM,60.8,59.0,94,29.83,1.0,Calm,Calm,-,N/A,,Overcast,0,2012-10-24 18:15:00
1:35 PM,60.8,59.0,94,29.82,1.0,ESE,3.5,-,N/A,,Overcast,110,2012-10-24 18:35:00
1:55 PM,60.8,60.8,100,29.81,1.0,ESE,4.6,-,N/A,,Overcast,120,2012-10-24 18:55:00
2:15 PM,60.8,60.8,100,29.81,1.0,SE,3.5,-,N/A,,Overcast,140,2012-10-24 19:15:00
2:35 PM,60.8,60.8,100,29.81,2.0,SE,3.5,-,N/A,,Overcast,130,2012-10-24 19:35:00
2:55 PM,60.8,60.8,100,29.80,1.8,SE,4.6,-,N/A,Rain,Light Rain,130,2012-10-24 19:55:00
3:15 PM,60.8,60.8,100,29.79,1.8,SE,3.5,-,N/A,,Overcast,140,2012-10-24 20:15:00
3:35 PM,62.6,60.8,94,29.79,2.0,SE,4.6,-,N/A,,Overcast,140,2012-10-24 20:35:00
3:55 PM,62.6,60.8,94,29.79,1.8,SE,3.5,-,N/A,,Overcast,140,2012-10-24 20:55:00
4:15 PM,62.6,60.8,94,29.79,2.0,SE,5.8,-,N/A,,Overcast,130,2012-10-24 21:15:00
4:35 PM,62.6,60.8,94,29.79,2.0,SE,3.5,-,N/A,,Overcast,140,2012-10-24 21:35:00
4:55 PM,62.6,60.8,94,29.78,2.0,SE,3.5,-,N/A,,Overcast,140,2012-10-24 21:55:00
5:15 PM,62.6,60.8,94,29.78,1.8,Calm,Calm,-,N/A,,Overcast,0,2012-10-24 22:15:00
5:55 PM,62.6,60.8,94,29.76,2.5,SE,4.6,-,N/A,,Overcast,140,2012-10-24 22:55:00
6:15 PM,62.6,60.8,94,29.75,2.0,SE,6.9,-,N/A,,Overcast,140,2012-10-24 23:15:00
6:35 PM,62.6,60.8,94,29.74,2.5,SE,5.8,-,N/A,,Overcast,140,2012-10-24 23:35:00
6:55 PM,62.6,60.8,94,29.74,2.5,SE,6.9,-,N/A,,Overcast,140,2012-10-24 23:55:00
7:15 PM,62.6,60.8,94,29.73,3.0,SE,8.1,-,N/A,,Overcast,140,2012-10-25 00:15:00
7:35 PM,62.6,60.8,94,29.72,3.0,SE,6.9,16.1,N/A,,Overcast,140,2012-10-25 00:35:00
7:55 PM,62.6,62.6,100,29.71,4.0,SE,8.1,-,N/A,,Overcast,140,2012-10-25 00:55:00
8:15 PM,62.6,62.6,100,29.70,4.0,SSE,6.9,-,N/A,,Overcast,150,2012-10-25 01:15:00
8:35 PM,62.6,62.6,100,29.70,4.0,SSE,6.9,-,N/A,,Overcast,150,2012-10-25 01:35:00
8:55 PM,62.6,60.8,94,29.70,4.0,SSE,5.8,-,N/A,,Overcast,160,2012-10-25 01:55:00
9:15 PM,62.6,60.8,94,29.68,2.5,SSE,9.2,-,N/A,Rain,Light Rain,160,2012-10-25 02:15:00
9:35 PM,62.6,62.6,100,29.70,3.0,SSE,8.1,-,N/A,,Overcast,160,2012-10-25 02:35:00
9:55 PM,62.6,62.6,100,29.70,3.0,SSE,5.8,-,N/A,,Overcast,150,2012-10-25 02:55:00
10:15 PM,62.6,62.6,100,29.70,4.0,South,5.8,-,N/A,,Overcast,190,2012-10-25 03:15:00
10:35 PM,64.4,62.6,94,29.71,7.0,SW,4.6,-,N/A,,Overcast,230,2012-10-25 03:35:00
10:55 PM,64.4,62.6,94,29.70,7.0,Calm,Calm,-,N/A,,Overcast,0,2012-10-25 03:55:00
11:15 PM,64.4,62.6,94,29.70,7.0,Calm,Calm,-,N/A,,Overcast,0,2012-10-25 04:15:00
11:35 PM,62.6,59.0,88,29.70,10.0,NW,5.8,-,N/A,,Overcast,310,2012-10-25 04:35:00
11:55 PM,60.8,57.2,88,29.71,10.0,WNW,5.8,-,N/A,,Overcast,290,2012-10-25 04:55:00